CW3783 Weather Reports


Display with metric or nautical units.
time (UTC)temp
F
wind
direction
speed
MPH
gust
MPH
rain 1hr
in
rain 24hr
in
rain mn
in
humidity
%
barometer
mb
20260506073304 70 190 9.0 14.0 0.00 0.00 0.00 62 1007.4
20260506072803 70 192 7.0 20.0 0.00 0.00 0.00 62 1007.3
20260506072305 70 192 9.0 16.0 0.00 0.00 0.00 62 1007.4
20260506071804 70 200 6.0 14.0 0.00 0.00 0.00 61 1007.5
20260506071304 70 204 9.0 17.0 0.00 0.00 0.00 61 1007.5
20260506070804 70 208 7.0 15.0 0.00 0.00 0.00 61 1007.5
20260506070304 70 187 6.0 17.0 0.00 0.00 0.00 60 1007.6
20260506062305 71 205 8.0 17.0 0.00 0.00 0.00 57 1007.9
20260506061804 71 202 7.0 10.0 0.00 0.00 0.00 57 1007.8
20260506061303 71 204 8.0 14.0 0.00 0.00 0.00 57 1007.9
20260506060803 72 192 6.0 12.0 0.00 0.00 0.00 56 1007.9
20260506051304 73 204 7.0 18.0 0.00 0.00 0.00 52 1008.1
20260506050804 73 193 9.0 20.0 0.00 0.00 0.00 52 1008.2
20260506050304 73 215 11.0 20.0 0.00 0.00 0.00 52 1008.3
20260506044803 73 190 9.0 20.0 0.00 0.00 0.00 51 1008.3
20260506044303 73 204 9.0 16.0 0.00 0.00 0.00 51 1008.3
20260506043804 74 197 7.0 17.0 0.00 0.00 0.00 51 1008.3
20260506043304 74 195 13.0 20.0 0.00 0.00 0.00 51 1008.4
20260506042803 74 208 10.0 17.0 0.00 0.00 0.00 51 1008.3
20260506042305 74 205 9.0 20.0 0.00 0.00 0.00 50 1008.3
20260506041803 74 199 10.0 22.0 0.00 0.00 0.00 50 1008.3
20260506041303 74 203 7.0 15.0 0.00 0.00 0.00 50 1008.3
20260506040804 74 192 9.0 20.0 0.00 0.00 0.00 50 1008.3
20260506040304 74 185 9.0 16.0 0.00 0.00 0.00 50 1008.3
20260506035803 74 203 9.0 14.0 0.00 0.00 0.00 50 1008.3
20260506035306 74 202 9.0 13.0 0.00 0.00 0.00 49 1008.3
20260506034803 74 191 10.0 16.0 0.00 0.00 0.00 49 1008.2
20260506034303 74 193 9.0 17.0 0.00 0.00 0.00 49 1008.2
20260506033303 74 206 7.0 17.0 0.00 0.00 0.00 48 1008.3
20260506032803 74 214 7.0 15.0 0.00 0.00 0.00 48 1008.3
20260506032305 74 189 10.0 14.0 0.00 0.00 0.00 47 1008.3
20260506031804 74 205 9.0 20.0 0.00 0.00 0.00 46 1008.2
20260506031303 74 202 9.0 15.0 0.00 0.00 0.00 46 1008.2
20260506030803 74 206 5.0 12.0 0.00 0.00 0.00 45 1008.2
20260506030303 74 198 7.0 15.0 0.00 0.00 0.00 45 1008.2
20260506025305 74 188 7.0 15.0 0.00 0.00 0.00 43 1008.2
20260506024303 75 193 8.0 14.0 0.00 0.00 0.00 42 1008.3
20260506023804 75 189 6.0 12.0 0.00 0.00 0.00 41 1008.4
20260506023304 75 180 7.0 12.0 0.00 0.00 0.00 41 1008.4
20260506022804 75 190 7.0 14.0 0.00 0.00 0.00 41 1008.5
20260506022305 75 199 7.0 12.0 0.00 0.00 0.00 41 1008.5
20260506021804 75 190 7.0 16.0 0.00 0.00 0.00 41 1008.4
20260506021305 75 188 7.0 13.0 0.00 0.00 0.00 40 1008.3
20260506020805 75 195 7.0 16.0 0.00 0.00 0.00 40 1008.4
20260506020303 76 210 9.0 18.0 0.00 0.00 0.00 40 1008.3
20260506015803 76 193 6.0 12.0 0.00 0.00 0.00 39 1008.3
20260506015306 76 212 5.0 15.0 0.00 0.00 0.00 39 1008.3
20260506014803 76 197 7.0 12.0 0.00 0.00 0.00 38 1008.2
20260506014303 76 206 9.0 14.0 0.00 0.00 0.00 38 1008.2
20260506013803 76 194 7.0 12.0 0.00 0.00 0.00 38 1008.2
20260506012804 76 188 7.0 14.0 0.00 0.00 0.00 37 1008.0
20260506012307 76 196 9.0 15.0 0.00 0.00 0.00 37 1008.0
20260506011803 77 198 6.0 13.0 0.00 0.00 0.00 36 1008.0
20260506011303 77 204 6.0 12.0 0.00 0.00 0.00 36 1007.9
20260506010804 77 199 9.0 14.0 0.00 0.00 0.00 36 1007.8
20260506005804 77 190 6.0 12.0 0.00 0.00 0.00 35 1007.6
20260506005305 78 200 7.0 13.0 0.00 0.00 0.00 35 1007.6
20260506004803 78 202 8.0 20.0 0.00 0.00 0.00 34 1007.6
20260506004303 78 202 10.0 17.0 0.00 0.00 0.00 34 1007.4
20260506003804 78 197 6.0 12.0 0.00 0.00 0.00 34 1007.4
20260506002803 78 186 6.0 15.0 0.00 0.00 0.00 33 1007.3
20260506002305 79 195 7.0 12.0 0.00 0.00 0.00 33 1007.3
20260506001804 79 195 7.0 13.0 0.00 0.00 0.00 32 1007.2
20260506001303 79 205 10.0 15.0 0.00 0.00 0.00 31 1007.1
20260506000803 79 186 9.0 15.0 0.00 0.00 0.00 31 1007.1
20260506000303 79 195 9.0 16.0 0.00 0.00 0.00 31 1007.1
20260505234803 80 208 8.0 17.0 0.00 0.00 0.00 30 1007.0
20260505234305 80 213 9.0 22.0 0.00 0.00 0.00 30 1007.1
20260505233803 80 204 10.0 20.0 0.00 0.00 0.00 30 1007.0
20260505232804 80 197 10.0 20.0 0.00 0.00 0.00 30 1006.9
20260505232305 80 200 9.0 17.0 0.00 0.00 0.00 30 1006.8
20260505231803 81 204 11.0 23.0 0.00 0.00 0.00 29 1006.8
20260505231303 81 195 9.0 16.0 0.00 0.00 0.00 30 1006.8
20260505230803 81 177 9.0 17.0 0.00 0.00 0.00 30 1006.9
20260505230303 81 186 9.0 18.0 0.00 0.00 0.00 30 1006.9
20260505225803 81 191 8.0 16.0 0.00 0.00 0.00 30 1006.9
20260505225305 81 193 12.0 12.0 0.00 0.00 0.00 30 1007.0
20260505224803 81 197 8.0 18.0 0.00 0.00 0.00 30 1007.0
20260505223804 81 189 9.0 15.0 0.00 0.00 0.00 30 1006.9
20260505223304 81 196 9.0 15.0 0.00 0.00 0.00 30 1007.0
20260505222305 81 211 8.0 17.0 0.00 0.00 0.00 30 1007.0
20260505221804 82 195 10.0 18.0 0.00 0.00 0.00 30 1006.9
20260505221304 82 199 8.0 20.0 0.00 0.00 0.00 31 1006.9
20260505220303 82 195 7.0 20.0 0.00 0.00 0.00 31 1007.0
20260505215803 82 195 10.0 16.0 0.00 0.00 0.00 30 1007.0
20260505214303 83 210 9.0 20.0 0.00 0.00 0.00 29 1006.9
20260505213804 83 193 8.0 20.0 0.00 0.00 0.00 29 1006.9
20260505212803 83 198 12.0 23.0 0.00 0.00 0.00 29 1006.7
20260505211803 84 188 7.0 20.0 0.00 0.00 0.00 29 1006.7
20260505211303 84 201 13.0 23.0 0.00 0.00 0.00 28 1006.7
20260505210804 84 193 9.0 21.0 0.00 0.00 0.00 29 1006.7
20260505210303 84 188 15.0 20.0 0.00 0.00 0.00 29 1006.7
20260505205803 84 160 18.0 26.0 0.00 0.00 0.00 28 1006.6
20260505205305 84 193 10.0 20.0 0.00 0.00 0.00 30 1006.7
20260505204803 84 221 11.0 21.0 0.00 0.00 0.00 29 1006.8
20260505204303 84 199 12.0 22.0 0.00 0.00 0.00 29 1006.8
20260505203803 84 198 14.0 26.0 0.00 0.00 0.00 29 1006.7
20260505203303 84 202 9.0 26.0 0.00 0.00 0.00 29 1006.9
20260505202803 84 193 14.0 28.0 0.00 0.00 0.00 29 1006.7
20260505202306 84 211 13.0 23.0 0.00 0.00 0.00 29 1006.7
20260505201803 84 216 9.0 24.0 0.00 0.00 0.00 30 1006.8
20260505201304 84 187 9.0 23.0 0.00 0.00 0.00 30 1006.8
20260505200804 84 215 12.0 22.0 0.00 0.00 0.00 30 1007.0
20260505200304 84 196 14.0 21.0 0.00 0.00 0.00 29 1006.9
20260505195804 84 194 12.0 20.0 0.00 0.00 0.00 30 1007.1
20260505195305 84 195 13.0 18.0 0.00 0.00 0.00 30 1007.1
20260505194304 84 197 17.0 26.0 0.00 0.00 0.00 30 1007.1
20260505192803 84 206 14.0 24.0 0.00 0.00 0.00 30 1007.4
20260505191303 84 217 12.0 22.0 0.00 0.00 0.00 31 1007.5
20260505190804 84 236 9.0 14.0 0.00 0.00 0.00 31 1007.5
20260505190304 83 182 9.0 25.0 0.00 0.00 0.00 32 1007.5
20260505185804 83 189 16.0 29.0 0.00 0.00 0.00 32 1007.5
20260505185305 83 196 14.0 29.0 0.00 0.00 0.00 33 1007.6
20260505184803 83 176 15.0 26.0 0.00 0.00 0.00 32 1007.8
20260505184303 84 189 10.0 20.0 0.00 0.00 0.00 33 1007.9
20260505183304 84 197 9.0 18.0 0.00 0.00 0.00 34 1008.1
20260505182803 83 217 7.0 14.0 0.00 0.00 0.00 36 1008.1
20260505182306 83 197 14.0 25.0 0.00 0.00 0.00 35 1008.2
20260505181803 83 187 13.0 20.0 0.00 0.00 0.00 35 1008.3
20260505181304 83 197 13.0 24.0 0.00 0.00 0.00 35 1008.5
20260505180804 83 188 14.0 24.0 0.00 0.00 0.00 34 1008.5
20260505180303 83 190 7.0 16.0 0.00 0.00 0.00 34 1008.5
20260505174804 83 191 9.0 21.0 0.00 0.00 0.00 32 1008.5
20260505174303 83 197 13.0 26.0 0.00 0.00 0.00 32 1008.6
20260505172804 82 209 12.0 22.0 0.00 0.00 0.00 33 1008.8
20260505172305 82 202 10.0 18.0 0.00 0.00 0.00 34 1008.8
20260505171804 82 185 14.0 25.0 0.00 0.00 0.00 34 1008.9
20260505170803 81 196 10.0 20.0 0.00 0.00 0.00 35 1008.9
20260505170303 81 210 10.0 20.0 0.00 0.00 0.00 36 1009.0
20260505165803 81 204 10.0 20.0 0.00 0.00 0.00 35 1009.1
20260505165306 81 191 9.0 20.0 0.00 0.00 0.00 37 1009.1
20260505164803 81 178 7.0 17.0 0.00 0.00 0.00 38 1009.1
20260505164303 81 191 10.0 20.0 0.00 0.00 0.00 38 1009.3
20260505163303 81 237 9.0 16.0 0.00 0.00 0.00 39 1009.5
20260505162805 80 198 9.0 15.0 0.00 0.00 0.00 40 1009.5
20260505162306 80 243 6.0 14.0 0.00 0.00 0.00 42 1009.5
20260505161303 80 213 8.0 15.0 0.00 0.00 0.00 42 1009.6
20260505160303 80 187 12.0 20.0 0.00 0.00 0.00 42 1009.7
20260505153303 79 208 9.0 16.0 0.00 0.00 0.00 43 1009.8
20260505152803 78 221 6.0 15.0 0.00 0.00 0.00 45 1009.8
20260505152305 78 212 5.0 10.0 0.00 0.00 0.00 45 1009.8
20260505151804 78 217 3.0 12.0 0.00 0.00 0.00 45 1009.7
20260505151304 77 162 6.0 16.0 0.00 0.00 0.00 47 1009.8
20260505150803 77 148 8.0 13.0 0.00 0.00 0.00 46 1009.8
20260505150303 76 237 5.0 13.0 0.00 0.00 0.00 45 1009.7
20260505140303 74 170 5.0 12.0 0.00 0.00 0.00 49 1010.0
20260505130303 70 211 5.0 8.0 0.00 0.00 0.00 53 1010.6
20260505124803 68 237 3.0 9.0 0.00 0.00 0.00 56 1010.4
20260505124303 68 233 3.0 9.0 0.00 0.00 0.00 56 1010.4
20260505123304 67 231 4.0 8.0 0.00 0.00 0.00 56 1010.3
20260505122804 67 238 2.0 10.0 0.00 0.00 0.00 57 1010.2
20260505122305 66 218 1.0 9.0 0.00 0.00 0.00 58 1010.3
20260505121804 66 220 5.0 12.0 0.00 0.00 0.00 58 1010.3
20260505121303 65 194 3.0 10.0 0.00 0.00 0.00 59 1010.2
20260505120803 65 231 6.0 12.0 0.00 0.00 0.00 59 1010.2
20260505120304 65 259 3.0 12.0 0.00 0.00 0.00 61 1010.1
20260505115305 64 225 7.0 12.0 0.00 0.00 0.00 61 1010.1
20260505114803 63 206 3.0 5.0 0.00 0.00 0.00 62 1010.1
20260505114303 63 219 5.0 12.0 0.00 0.00 0.00 62 1010.1
20260505113304 62 234 5.0 9.0 0.00 0.00 0.00 64 1010.0
20260505112804 62 236 4.0 9.0 0.00 0.00 0.00 64 1010.0
20260505112305 62 184 2.0 7.0 0.00 0.00 0.00 64 1010.0
20260505111804 61 227 6.0 12.0 0.00 0.00 0.00 64 1009.9
20260505111305 61 176 3.0 9.0 0.00 0.00 0.00 65 1009.8
20260505110803 61 213 4.0 12.0 0.00 0.00 0.00 65 1009.8
20260505110303 61 218 5.0 9.0 0.00 0.00 0.00 65 1009.7
20260505101804 60 212 3.0 7.0 0.00 0.00 0.00 66 1009.2
20260505101304 60 198 3.0 10.0 0.00 0.00 0.00 65 1009.3
20260505100803 60 211 4.0 10.0 0.00 0.00 0.00 65 1009.2
20260505100303 60 200 5.0 9.0 0.00 0.00 0.00 65 1009.1
20260505095304 60 233 3.0 9.0 0.00 0.00 0.00 65 1009.0
20260505094804 60 225 3.0 8.0 0.00 0.00 0.00 65 1009.0
20260505094304 60 220 3.0 9.0 0.00 0.00 0.00 65 1008.9
20260505093805 60 225 5.0 10.0 0.00 0.00 0.00 65 1009.0
20260505093303 60 226 5.0 12.0 0.00 0.00 0.00 65 1008.9
20260505092804 60 208 3.0 9.0 0.00 0.00 0.00 65 1008.9
20260505092305 60 216 5.0 10.0 0.00 0.00 0.00 65 1008.9
20260505091804 60 208 4.0 9.0 0.00 0.00 0.00 65 1008.9
20260505091304 60 236 4.0 10.0 0.00 0.00 0.00 65 1008.9
20260505090803 60 217 3.0 10.0 0.00 0.00 0.00 65 1008.9
20260505090304 60 227 4.0 12.0 0.00 0.00 0.00 65 1008.9
20260505085803 60 210 6.0 12.0 0.00 0.00 0.00 65 1009.0
20260505085305 60 211 5.0 12.0 0.00 0.00 0.00 65 1009.0
20260505084804 60 214 5.0 12.0 0.00 0.00 0.00 65 1008.9
20260505084304 60 220 4.0 10.0 0.00 0.00 0.00 65 1009.0
20260505083804 60 214 3.0 8.0 0.00 0.00 0.00 65 1008.9
20260505083304 60 209 4.0 8.0 0.00 0.00 0.00 64 1008.9
20260505081804 60 190 4.0 10.0 0.00 0.00 0.00 65 1008.9
20260505081303 60 204 4.0 10.0 0.00 0.00 0.00 65 1008.9
20260505080803 60 219 5.0 9.0 0.00 0.00 0.00 64 1008.9
20260505075803 60 202 5.0 9.0 0.00 0.00 0.00 64 1008.9
20260505074803 60 199 3.0 9.0 0.00 0.00 0.00 64 1008.9
20260505074303 61 202 4.0 8.0 0.00 0.00 0.00 64 1008.9